#timestamp,LO_Frequency,Hit,StdDev 
1633078815.2,286046996.3,N
1633078835.1,286046995.4,N
1633078836.0,286046995.4,N
1633078855.8,286046997.0,N
1633078875.6,286046996.9,N
1633078895.5,286046997.4,N
1633078915.3,286046997.3,N
1633078935.1,286046995.0,Y
1633078955.9,286046998.9,P
1633078975.7,286046996.8,N
1633078995.6,286046995.3,P
1633079015.4,286046995.6,Y
1633079035.2,286046999.4,P
1633079055.1,286046997.8,N
1633079056.0,286046997.8,N
1633079075.8,286046996.8,Y
1633079095.7,286046999.0,P
1633079115.5,286046999.1,N
1633079135.3,286046999.6,N
1633079155.2,286046994.9,Y
1633079175.0,286046997.2,P
1633079175.9,286046997.2,P
1633079195.8,286046999.2,N
1633079215.6,286046998.3,N
1633079235.4,286046998.7,N
1633079255.3,286046999.2,N
1633079275.1,286046999.2,N
1633079295.8,286046998.7,N
1633079315.7,286046999.0,N
1633079335.5,286046998.6,N
1633079355.4,286046999.2,N
1633079375.2,286046996.5,Y
1633079395.0,286046998.7,P
1633079395.9,286046998.7,P
1633079415.8,286046998.8,P
1633079435.6,286046999.2,Y
1633079455.5,286046998.1,P
1633079475.3,286046998.5,P
1633079495.1,286046998.5,P
1633079515.9,286046998.1,Y
1633079535.7,286047000.4,P
1633079555.5,286047000.9,N
1633079575.4,286047000.8,N
1633079595.2,286046999.0,N
1633079615.1,286046998.5,N
1633079616.0,286046998.5,N
1633079635.8,286046998.3,N
1633079655.6,286046999.5,N
1633079675.5,286046999.1,N
1633079695.3,286046998.6,N
1633079715.2,286046998.3,N
1633079735.9,286046996.6,Y
1633079755.7,286046998.9,P
1633079775.6,286046997.1,P
1633079795.4,286046997.4,N
1633079815.2,286046997.5,N
1633079835.1,286046997.8,N
1633079836.0,286046997.8,N
1633079855.8,286046997.1,Y
1633079875.7,286046998.3,P
1633079895.5,286047001.1,P
1633079915.3,286046998.9,N
1633079935.2,286046999.4,N
1633079955.0,286046999.2,N
1633079955.9,286046999.2,N
1633079975.8,286046998.4,N
1633079995.6,286046996.5,Y
1633080015.4,286046999.5,P
1633080035.3,286046997.1,P
1633080055.1,286046999.0,N
1633080075.8,286046998.7,N
1633080095.7,286046998.7,N
1633080115.5,286046997.0,Y
1633080135.4,286046998.8,P
1633080155.2,286046999.0,P
1633080175.0,286046998.8,P
1633080175.9,286046998.8,Y
1633080195.8,286046999.8,P
1633080215.6,286047000.5,N
1633080235.5,286047000.1,N
1633080255.3,286046998.9,N
1633080275.1,286046996.5,Y
1633080295.9,286046997.2,P
1633080315.7,286046996.7,N
1633080335.6,286046997.6,N
1633080355.4,286046996.7,N
1633080375.2,286046999.2,N
1633080395.1,286046999.4,N
1633080396.0,286046999.4,N
1633080415.8,286046997.1,N
1633080435.7,286046995.4,Y
1633080455.5,286046998.3,P
1633080475.3,286046998.7,P
1633080495.2,286046996.9,P
1633080515.0,286046996.6,Y
1633080515.9,286046996.6,P
1633080535.8,286047000.8,N
1633080555.6,286046998.6,N
1633080575.4,286047000.5,N
1633080595.3,286047001.2,N
1633080615.1,286046998.2,N
1633080635.8,286047001.2,N
1633080655.7,286046998.5,N
1633080675.5,286047001.0,N
1633080695.4,286046998.1,N
1633080715.2,286047000.8,N
1633080735.0,286046998.1,N
1633080735.9,286046998.1,N
1633080755.8,286047000.2,N
1633080775.6,286046998.1,N
1633080795.4,286046998.4,N
1633080815.3,286046998.5,N
1633080835.1,286046998.8,N
1633080855.9,286046996.9,N
1633080875.7,286046997.1,N
1633080895.5,286046999.1,N
1633080915.4,286046999.0,N
1633080935.2,286046999.1,N
1633080955.0,286046997.2,N
1633080956.0,286046997.2,N
1633080975.8,286046998.6,N
1633080995.6,286046996.5,N
1633081015.5,286046999.0,N
1633081035.3,286046996.5,N
1633081055.1,286046997.5,N
1633081075.9,286046997.5,N
1633081095.7,286046997.7,N
1633081115.6,286046995.3,Y
1633081135.4,286046995.3,P
1633081155.2,286046997.8,N
1633081175.1,286046996.7,N
1633081176.0,286046996.7,N
1633081195.8,286046997.3,N
1633081215.6,286046997.8,N
1633081235.5,286046996.7,Y
1633081255.3,286047001.2,P
1633081275.2,286047002.3,N
1633081295.9,286047002.6,N
1633081315.7,286047001.0,N
1633081335.6,286046998.5,N
1633081385.4,286047001.2,E
1633081395.4,286046997.0,N
1633081415.2,286046997.0,P
1633081435.0,286046997.1,P
1633081435.9,286046997.1,Y
1633081455.8,286046998.1,P
1633081475.6,286046998.1,P
1633081495.4,286046999.9,N
1633081515.3,286047001.9,N
1633081535.1,286047002.3,N
1633081555.9,286047000.4,N
1633081575.7,286047002.7,N
1633081595.5,286047002.2,N
1633081615.4,286047003.0,N
1633081635.2,286047003.5,N
1633081655.0,286047002.0,N
1633081655.9,286047002.0,N
1633081675.8,286047001.0,N
1633081695.6,286046998.5,N
1633081715.5,286046997.4,N
1633081735.3,286046997.5,N
1633081755.1,286046999.6,N
1633081775.9,286046999.1,N
1633081795.7,286046996.7,N
1633081815.5,286046997.4,N
1633081835.4,286046996.6,N
1633081855.2,286046997.6,N
1633081875.1,286046999.4,N
1633081876.0,286046999.4,N
1633081895.8,286046997.7,N
1633081915.6,286046997.7,N
1633081935.5,286046994.9,N
1633081955.3,286046994.9,N
1633081975.1,286046995.4,N
1633081995.9,286046995.8,N
1633082015.7,286046995.7,N
1633082035.6,286046994.6,N
1633082055.4,286046995.5,N
1633082075.2,286046996.2,N
1633082095.1,286046994.4,N
1633082096.0,286046994.4,N
1633082115.8,286046991.7,N
1633082135.7,286046994.8,N
1633082155.5,286046991.8,N
1633082175.3,286046990.8,Y
1633082195.2,286046992.1,P
1633082215.0,286046995.9,N
1633082215.9,286046995.9,N
1633082235.8,286046997.6,N
1633082255.6,286046995.6,N
1633082275.4,286046993.3,Y
1633082295.3,286046996.8,P
1633082315.1,286046999.6,N
1633082335.8,286046997.1,N
1633082355.7,286046996.7,N
1633082375.5,286046995.4,Y
1633082395.4,286047002.3,P
